Year,Month,Day,Hour,Minute,Value (Times are PST for insolation in W/m^2)
2022,09,24,00,00,16.00
2022,09,24,00,01,16.00
2022,09,24,00,02,16.00
2022,09,24,00,03,16.00
2022,09,24,00,04,16.00
2022,09,24,00,05,16.00
2022,09,24,00,06,16.00
2022,09,24,00,07,16.00
2022,09,24,00,08,16.00
2022,09,24,00,09,16.00
2022,09,24,00,10,16.00
2022,09,24,00,11,16.00
2022,09,24,00,12,16.00
2022,09,24,00,13,16.00
2022,09,24,00,14,16.00
2022,09,24,00,15,16.00
2022,09,24,00,16,16.00
2022,09,24,00,17,16.00
2022,09,24,00,18,16.00
2022,09,24,00,19,16.00
2022,09,24,00,20,16.00
2022,09,24,00,21,16.00
2022,09,24,00,22,16.00
2022,09,24,00,23,16.00
2022,09,24,00,24,16.00
2022,09,24,00,25,16.00
2022,09,24,00,26,16.00
2022,09,24,00,27,16.00
2022,09,24,00,28,16.00
2022,09,24,00,29,16.00
2022,09,24,00,30,16.00
2022,09,24,00,31,16.00
2022,09,24,00,32,16.00
2022,09,24,00,33,16.00
2022,09,24,00,34,16.00
2022,09,24,00,35,16.00
2022,09,24,00,36,16.00
2022,09,24,00,37,16.00
2022,09,24,00,38,16.00
2022,09,24,00,39,16.00
2022,09,24,00,40,16.00
2022,09,24,00,41,16.00
2022,09,24,00,42,16.00
2022,09,24,00,43,16.00
2022,09,24,00,44,16.00
2022,09,24,00,45,16.00
2022,09,24,00,46,16.00
2022,09,24,00,47,16.00
2022,09,24,00,48,16.00
2022,09,24,00,49,16.00
2022,09,24,00,50,16.00
2022,09,24,00,51,16.00
2022,09,24,00,52,16.00
2022,09,24,00,53,16.00
2022,09,24,00,54,16.00
2022,09,24,00,55,16.00
2022,09,24,00,56,16.00
2022,09,24,00,57,16.00
2022,09,24,00,58,16.00
2022,09,24,00,59,16.00
2022,09,24,01,00,16.00
2022,09,24,01,01,16.00
2022,09,24,01,02,16.00
2022,09,24,01,03,16.00
2022,09,24,01,04,16.00
2022,09,24,01,05,16.00
2022,09,24,01,06,16.00
2022,09,24,01,07,16.00
2022,09,24,01,08,16.00
2022,09,24,01,09,16.00
2022,09,24,01,10,16.00
2022,09,24,01,11,16.00
2022,09,24,01,12,16.00
2022,09,24,01,13,16.00
2022,09,24,01,14,16.00
2022,09,24,01,15,16.00
2022,09,24,01,16,16.00
2022,09,24,01,17,16.00
2022,09,24,01,18,16.00
2022,09,24,01,19,16.00
2022,09,24,01,20,16.00
2022,09,24,01,21,16.00
2022,09,24,01,22,16.00
2022,09,24,01,23,16.00
2022,09,24,01,24,16.00
2022,09,24,01,25,16.00
2022,09,24,01,26,16.00
2022,09,24,01,27,16.00
2022,09,24,01,28,16.00
2022,09,24,01,29,16.00
2022,09,24,01,30,16.00
2022,09,24,01,31,16.00
2022,09,24,01,32,16.00
2022,09,24,01,33,16.00
2022,09,24,01,34,16.00
2022,09,24,01,35,16.00
2022,09,24,01,36,16.00
2022,09,24,01,37,16.00
2022,09,24,01,38,16.00
2022,09,24,01,39,16.00
2022,09,24,01,40,16.00
2022,09,24,01,41,16.00
2022,09,24,01,42,16.00
2022,09,24,01,43,16.00
2022,09,24,01,44,16.00
2022,09,24,01,45,16.00
2022,09,24,01,46,16.00
2022,09,24,01,47,16.00
2022,09,24,01,48,16.00
2022,09,24,01,49,16.00
2022,09,24,01,50,16.00
2022,09,24,01,51,16.00
2022,09,24,01,52,16.00
2022,09,24,01,53,16.00
2022,09,24,01,54,16.00
2022,09,24,01,55,16.00
2022,09,24,01,56,16.00
2022,09,24,01,57,16.00
2022,09,24,01,58,16.00
2022,09,24,01,59,16.00
2022,09,24,02,00,16.00
2022,09,24,02,01,16.00
2022,09,24,02,02,16.00
2022,09,24,02,03,16.00
2022,09,24,02,04,16.00
2022,09,24,02,05,16.00
2022,09,24,02,06,16.00
2022,09,24,02,07,16.00
2022,09,24,02,08,16.00
2022,09,24,02,09,16.00
2022,09,24,02,10,16.00
2022,09,24,02,11,16.00
2022,09,24,02,12,16.00
2022,09,24,02,13,16.00
2022,09,24,02,14,16.00
2022,09,24,02,15,16.00
2022,09,24,02,16,16.00
2022,09,24,02,17,16.00
2022,09,24,02,18,16.00
2022,09,24,02,19,16.00
2022,09,24,02,20,16.00
2022,09,24,02,21,16.00
2022,09,24,02,22,16.00
2022,09,24,02,23,16.00
2022,09,24,02,24,16.00
2022,09,24,02,25,16.00
2022,09,24,02,26,16.00
2022,09,24,02,27,16.00
2022,09,24,02,28,16.00
2022,09,24,02,29,16.00
2022,09,24,02,30,16.00
2022,09,24,02,31,16.00
2022,09,24,02,32,16.00
2022,09,24,02,33,16.00
2022,09,24,02,34,16.00
2022,09,24,02,35,16.00
2022,09,24,02,36,16.00
2022,09,24,02,37,16.00
2022,09,24,02,38,16.00
2022,09,24,02,39,16.00
2022,09,24,02,40,16.00
2022,09,24,02,41,16.00
2022,09,24,02,42,16.00
2022,09,24,02,43,16.00
2022,09,24,02,44,16.00
2022,09,24,02,45,16.00
2022,09,24,02,46,16.00
2022,09,24,02,47,16.00
2022,09,24,02,48,16.00
2022,09,24,02,49,16.00
2022,09,24,02,50,16.00
2022,09,24,02,51,16.00
2022,09,24,02,52,16.00
2022,09,24,02,53,16.00
2022,09,24,02,54,16.00
2022,09,24,02,55,16.00
2022,09,24,02,56,16.00
2022,09,24,02,57,16.00
2022,09,24,02,58,16.00
2022,09,24,02,59,16.00
2022,09,24,03,00,16.00
2022,09,24,03,01,16.00
2022,09,24,03,02,16.00
2022,09,24,03,03,16.00
2022,09,24,03,04,16.00
2022,09,24,03,05,16.00
2022,09,24,03,06,16.00
2022,09,24,03,07,16.00
2022,09,24,03,08,16.00
2022,09,24,03,09,16.00
2022,09,24,03,10,16.00
2022,09,24,03,11,16.00
2022,09,24,03,12,16.00
2022,09,24,03,13,16.00
2022,09,24,03,14,16.00
2022,09,24,03,15,16.00
2022,09,24,03,16,16.00
2022,09,24,03,17,16.00
2022,09,24,03,18,16.00
2022,09,24,03,19,16.00
2022,09,24,03,20,16.00
2022,09,24,03,21,16.00
2022,09,24,03,22,16.00
2022,09,24,03,23,16.00
2022,09,24,03,24,16.00
2022,09,24,03,25,16.00
2022,09,24,03,26,16.00
2022,09,24,03,27,16.00
2022,09,24,03,28,16.00
2022,09,24,03,29,16.00
2022,09,24,03,30,16.00
2022,09,24,03,31,16.00
2022,09,24,03,32,16.00
2022,09,24,03,33,16.00
2022,09,24,03,34,16.00
2022,09,24,03,35,16.00
2022,09,24,03,36,16.00
2022,09,24,03,37,16.00
2022,09,24,03,38,16.00
2022,09,24,03,39,16.00
2022,09,24,03,40,16.00
2022,09,24,03,41,16.00
2022,09,24,03,42,16.00
2022,09,24,03,43,16.00
2022,09,24,03,44,16.00
2022,09,24,03,45,16.00
2022,09,24,03,46,16.00
2022,09,24,03,47,16.00
2022,09,24,03,48,16.00
2022,09,24,03,49,16.00
2022,09,24,03,50,16.00
2022,09,24,03,51,16.00
2022,09,24,03,52,16.00
2022,09,24,03,53,16.00
2022,09,24,03,54,16.00
2022,09,24,03,55,16.00
2022,09,24,03,56,16.00
2022,09,24,03,57,16.00
2022,09,24,03,58,16.00
2022,09,24,03,59,16.00
2022,09,24,04,00,16.00
2022,09,24,04,01,16.00
2022,09,24,04,02,16.00
2022,09,24,04,03,16.00
2022,09,24,04,04,16.00
2022,09,24,04,05,16.00
2022,09,24,04,06,16.00
2022,09,24,04,07,16.00
2022,09,24,04,08,16.00
2022,09,24,04,09,16.00
2022,09,24,04,10,16.00
2022,09,24,04,11,16.00
2022,09,24,04,12,16.00
2022,09,24,04,13,16.00
2022,09,24,04,14,16.00
2022,09,24,04,15,16.00
2022,09,24,04,16,16.00
2022,09,24,04,17,16.00
2022,09,24,04,18,16.00
2022,09,24,04,19,16.00
2022,09,24,04,20,16.00
2022,09,24,04,21,16.00
2022,09,24,04,22,16.00
2022,09,24,04,23,16.00
2022,09,24,04,24,16.00
2022,09,24,04,25,16.00
2022,09,24,04,26,16.00
2022,09,24,04,27,16.00
2022,09,24,04,28,16.00
2022,09,24,04,29,16.00
2022,09,24,04,30,16.00
2022,09,24,04,31,16.00
2022,09,24,04,32,16.00
2022,09,24,04,33,16.00
2022,09,24,04,34,16.00
2022,09,24,04,35,16.00
2022,09,24,04,36,16.00
2022,09,24,04,37,16.00
2022,09,24,04,38,16.00
2022,09,24,04,39,16.00
2022,09,24,04,40,16.00
2022,09,24,04,41,16.00
2022,09,24,04,42,16.00
2022,09,24,04,43,16.00
2022,09,24,04,44,16.00
2022,09,24,04,45,16.00
2022,09,24,04,46,16.00
2022,09,24,04,47,16.00
2022,09,24,04,48,16.00
2022,09,24,04,49,16.00
2022,09,24,04,50,16.00
2022,09,24,04,51,16.00
2022,09,24,04,52,16.00
2022,09,24,04,53,16.00
2022,09,24,04,54,16.00
2022,09,24,04,55,16.00
2022,09,24,04,56,16.00
2022,09,24,04,57,16.00
2022,09,24,04,58,16.00
2022,09,24,04,59,16.00
2022,09,24,05,00,16.00
2022,09,24,05,01,16.00
2022,09,24,05,02,16.00
2022,09,24,05,03,16.00
2022,09,24,05,04,16.00
2022,09,24,05,05,16.00
2022,09,24,05,06,16.00
2022,09,24,05,07,16.00
2022,09,24,05,08,16.00
2022,09,24,05,09,16.00
2022,09,24,05,10,16.00
2022,09,24,05,11,16.00
2022,09,24,05,12,16.00
2022,09,24,05,13,16.00
2022,09,24,05,14,16.00
2022,09,24,05,15,16.00
2022,09,24,05,16,16.00
2022,09,24,05,17,16.00
2022,09,24,05,18,16.00
2022,09,24,05,19,16.00
2022,09,24,05,20,16.00
2022,09,24,05,21,16.00
2022,09,24,05,22,16.00
2022,09,24,05,23,16.00
2022,09,24,05,24,16.00
2022,09,24,05,25,16.00
2022,09,24,05,26,16.00
2022,09,24,05,27,16.00
2022,09,24,05,28,16.00
2022,09,24,05,29,16.00
2022,09,24,05,30,16.00
2022,09,24,05,31,16.00
2022,09,24,05,32,16.00
2022,09,24,05,33,16.00
2022,09,24,05,34,16.00
2022,09,24,05,35,16.00
2022,09,24,05,36,16.00
2022,09,24,05,37,16.00
2022,09,24,05,38,16.00
2022,09,24,05,39,16.00
2022,09,24,05,40,16.00
2022,09,24,05,41,16.00
2022,09,24,05,42,16.00
2022,09,24,05,43,16.00
2022,09,24,05,44,16.00
2022,09,24,05,45,16.00
2022,09,24,05,46,16.00
2022,09,24,05,47,16.00
2022,09,24,05,48,16.00
2022,09,24,05,49,16.00
2022,09,24,05,50,16.00
2022,09,24,05,51,16.00
2022,09,24,05,52,16.00
2022,09,24,05,53,16.00
2022,09,24,05,54,16.00
2022,09,24,05,55,16.00
2022,09,24,05,56,16.00
2022,09,24,05,57,16.00
2022,09,24,05,58,16.00
2022,09,24,05,59,16.00
2022,09,24,06,00,16.00
2022,09,24,06,01,16.00
2022,09,24,06,02,16.00
2022,09,24,06,03,16.00
2022,09,24,06,04,16.00
2022,09,24,06,05,16.00
2022,09,24,06,06,16.00
2022,09,24,06,07,16.00
2022,09,24,06,08,16.00
2022,09,24,06,09,16.00
2022,09,24,06,10,16.00
2022,09,24,06,11,16.00
2022,09,24,06,12,16.00
2022,09,24,06,13,16.00
2022,09,24,06,14,16.00
2022,09,24,06,15,16.00
2022,09,24,06,16,16.00
2022,09,24,06,17,16.00
2022,09,24,06,18,16.00
2022,09,24,06,19,16.00
2022,09,24,06,20,16.00
2022,09,24,06,21,16.00
2022,09,24,06,22,16.00
2022,09,24,06,23,16.00
2022,09,24,06,24,16.00
2022,09,24,06,25,16.00
2022,09,24,06,26,16.00
2022,09,24,06,27,16.00
2022,09,24,06,28,16.00
2022,09,24,06,29,16.00
2022,09,24,06,30,16.00
2022,09,24,06,31,16.00
2022,09,24,06,32,16.00
2022,09,24,06,33,16.00
2022,09,24,06,34,16.00
2022,09,24,06,35,16.00
2022,09,24,06,36,16.00
2022,09,24,06,37,16.00
2022,09,24,06,38,16.00
2022,09,24,06,39,16.00
2022,09,24,06,40,16.00
2022,09,24,06,41,16.00
2022,09,24,06,42,16.00
2022,09,24,06,43,16.00
2022,09,24,06,44,16.00
2022,09,24,06,45,16.00
2022,09,24,06,46,16.60
2022,09,24,06,47,18.00
2022,09,24,06,48,18.00
2022,09,24,06,49,18.00
2022,09,24,06,50,18.00
2022,09,24,06,51,18.00
2022,09,24,06,52,18.00
2022,09,24,06,53,18.00
2022,09,24,06,54,18.00
2022,09,24,06,55,18.00
2022,09,24,06,56,18.00
2022,09,24,06,57,18.00
2022,09,24,06,58,18.00
2022,09,24,06,59,19.00
2022,09,24,07,00,19.00
2022,09,24,07,01,19.00
2022,09,24,07,02,19.00
2022,09,24,07,03,19.00
2022,09,24,07,04,19.00
2022,09,24,07,05,19.10
2022,09,24,07,06,21.00
2022,09,24,07,07,21.00
2022,09,24,07,08,21.00
2022,09,24,07,09,22.10
2022,09,24,07,10,23.00
2022,09,24,07,11,23.00
2022,09,24,07,12,23.10
2022,09,24,07,13,25.00
2022,09,24,07,14,25.00
2022,09,24,07,15,25.40
2022,09,24,07,16,26.00
2022,09,24,07,17,26.00
2022,09,24,07,18,27.60
2022,09,24,07,19,28.10
2022,09,24,07,20,30.00
2022,09,24,07,21,30.00
2022,09,24,07,22,30.00
2022,09,24,07,23,31.10
2022,09,24,07,24,32.00
2022,09,24,07,25,32.00
2022,09,24,07,26,32.90
2022,09,24,07,27,33.00
2022,09,24,07,28,33.50
2022,09,24,07,29,35.00
2022,09,24,07,30,36.00
2022,09,24,07,31,37.00
2022,09,24,07,32,38.60
2022,09,24,07,33,41.80
2022,09,24,07,34,43.60
2022,09,24,07,35,53.30
2022,09,24,07,36,54.80
2022,09,24,07,37,56.00
2022,09,24,07,38,59.90
2022,09,24,07,39,62.80
2022,09,24,07,40,66.80
2022,09,24,07,41,69.40
2022,09,24,07,42,72.60
2022,09,24,07,43,74.80
2022,09,24,07,44,77.60
2022,09,24,07,45,81.70
2022,09,24,07,46,85.30
2022,09,24,07,47,87.90
2022,09,24,07,48,90.10
2022,09,24,07,49,91.00
2022,09,24,07,50,91.00
2022,09,24,07,51,91.00
2022,09,24,07,52,69.80
2022,09,24,07,53,58.00
2022,09,24,07,54,56.20
2022,09,24,07,55,56.00
2022,09,24,07,56,56.00
2022,09,24,07,57,56.00
2022,09,24,07,58,56.00
2022,09,24,07,59,56.00
2022,09,24,08,00,56.00
2022,09,24,08,01,56.00
2022,09,24,08,02,56.00
2022,09,24,08,03,56.00
2022,09,24,08,04,56.00
2022,09,24,08,05,54.90
2022,09,24,08,06,54.00
2022,09,24,08,07,55.60
2022,09,24,08,08,67.40
2022,09,24,08,09,60.80
2022,09,24,08,10,54.00
2022,09,24,08,11,52.80
2022,09,24,08,12,50.00
2022,09,24,08,13,47.70
2022,09,24,08,14,47.00
2022,09,24,08,15,47.00
2022,09,24,08,16,47.00
2022,09,24,08,17,47.00
2022,09,24,08,18,47.00
2022,09,24,08,19,47.00
2022,09,24,08,20,48.30
2022,09,24,08,21,49.00
2022,09,24,08,22,50.90
2022,09,24,08,23,53.20
2022,09,24,08,24,53.70
2022,09,24,08,25,53.40
2022,09,24,08,26,54.00
2022,09,24,08,27,54.00
2022,09,24,08,28,55.60
2022,09,24,08,29,58.60
2022,09,24,08,30,71.20
2022,09,24,08,31,83.70
2022,09,24,08,32,93.40
2022,09,24,08,33,101.30
2022,09,24,08,34,104.70
2022,09,24,08,35,106.60
2022,09,24,08,36,109.00
2022,09,24,08,37,113.40
2022,09,24,08,38,115.40
2022,09,24,08,39,117.70
2022,09,24,08,40,125.10
2022,09,24,08,41,125.70
2022,09,24,08,42,154.60
2022,09,24,08,43,162.10
2022,09,24,08,44,264.60
2022,09,24,08,45,283.70
2022,09,24,08,46,266.40
2022,09,24,08,47,281.20
2022,09,24,08,48,307.70
2022,09,24,08,49,320.00
2022,09,24,08,50,319.50
2022,09,24,08,51,308.10
2022,09,24,08,52,306.00
2022,09,24,08,53,299.50
2022,09,24,08,54,338.30
2022,09,24,08,55,339.30
2022,09,24,08,56,342.60
2022,09,24,08,57,341.40
2022,09,24,08,58,299.10
2022,09,24,08,59,303.20
2022,09,24,09,00,273.50
2022,09,24,09,01,264.80
2022,09,24,09,02,203.90
2022,09,24,09,03,158.50
2022,09,24,09,04,158.10
2022,09,24,09,05,171.60
2022,09,24,09,06,191.40
2022,09,24,09,07,198.60
2022,09,24,09,08,200.80
2022,09,24,09,09,206.00
2022,09,24,09,10,213.00
2022,09,24,09,11,224.10
2022,09,24,09,12,230.80
2022,09,24,09,13,262.00
2022,09,24,09,14,270.40
2022,09,24,09,15,304.40
2022,09,24,09,16,357.30
2022,09,24,09,17,372.50
2022,09,24,09,18,366.00
2022,09,24,09,19,357.00
2022,09,24,09,20,345.30
2022,09,24,09,21,318.40
2022,09,24,09,22,313.70
2022,09,24,09,23,312.80
2022,09,24,09,24,332.30
2022,09,24,09,25,336.90
2022,09,24,09,26,359.00
2022,09,24,09,27,354.30
2022,09,24,09,28,332.80
2022,09,24,09,29,285.90
2022,09,24,09,30,282.00
2022,09,24,09,31,357.80
2022,09,24,09,32,402.80
2022,09,24,09,33,406.00
2022,09,24,09,34,385.30
2022,09,24,09,35,336.90
2022,09,24,09,36,349.70
2022,09,24,09,37,354.20
2022,09,24,09,38,367.50
2022,09,24,09,39,395.30
2022,09,24,09,40,405.60
2022,09,24,09,41,405.60
2022,09,24,09,42,370.00
2022,09,24,09,43,336.60
2022,09,24,09,44,321.70
2022,09,24,09,45,350.20
2022,09,24,09,46,331.50
2022,09,24,09,47,309.80
2022,09,24,09,48,311.30
2022,09,24,09,49,348.30
2022,09,24,09,50,348.20
2022,09,24,09,51,319.30
2022,09,24,09,52,322.10
2022,09,24,09,53,363.30
2022,09,24,09,54,428.80
2022,09,24,09,55,459.20
2022,09,24,09,56,436.00
2022,09,24,09,57,416.20
2022,09,24,09,58,363.00
2022,09,24,09,59,322.20
2022,09,24,10,00,316.20
2022,09,24,10,01,332.10
2022,09,24,10,02,258.00
2022,09,24,10,03,246.90
2022,09,24,10,04,238.10
2022,09,24,10,05,262.00
2022,09,24,10,06,266.10
2022,09,24,10,07,266.50
2022,09,24,10,08,310.90
2022,09,24,10,09,337.50
2022,09,24,10,10,346.90
2022,09,24,10,11,366.80
2022,09,24,10,12,376.30
2022,09,24,10,13,367.40
2022,09,24,10,14,359.70
2022,09,24,10,15,372.10
2022,09,24,10,16,389.10
2022,09,24,10,17,384.60
2022,09,24,10,18,404.00
2022,09,24,10,19,424.00
2022,09,24,10,20,448.10
2022,09,24,10,21,457.40
2022,09,24,10,22,469.60
2022,09,24,10,23,449.30
2022,09,24,10,24,430.30
2022,09,24,10,25,426.70
2022,09,24,10,26,425.60
2022,09,24,10,27,423.60
2022,09,24,10,28,430.70
2022,09,24,10,29,433.50
2022,09,24,10,30,421.40
2022,09,24,10,31,412.70
2022,09,24,10,32,404.70
2022,09,24,10,33,409.40
2022,09,24,10,34,393.90
2022,09,24,10,35,383.00
2022,09,24,10,36,420.30
2022,09,24,10,37,425.70
2022,09,24,10,38,428.10
2022,09,24,10,39,460.20
2022,09,24,10,40,463.70
2022,09,24,10,41,461.00
2022,09,24,10,42,501.60
2022,09,24,10,43,526.40
2022,09,24,10,44,530.10
2022,09,24,10,45,534.20
2022,09,24,10,46,536.00
2022,09,24,10,47,536.00
2022,09,24,10,48,537.60
2022,09,24,10,49,539.90
2022,09,24,10,50,540.00
2022,09,24,10,51,542.30
2022,09,24,10,52,548.80
2022,09,24,10,53,551.10
2022,09,24,10,54,553.30
2022,09,24,10,55,554.80
2022,09,24,10,56,555.10
2022,09,24,10,57,557.30
2022,09,24,10,58,559.60
2022,09,24,10,59,561.80
2022,09,24,11,00,563.00
2022,09,24,11,01,566.20
2022,09,24,11,02,569.60
2022,09,24,11,03,571.00
2022,09,24,11,04,575.00
2022,09,24,11,05,575.90
2022,09,24,11,06,579.60
2022,09,24,11,07,583.10
2022,09,24,11,08,585.90
2022,09,24,11,09,590.10
2022,09,24,11,10,589.50
2022,09,24,11,11,598.00
2022,09,24,11,12,564.50
2022,09,24,11,13,485.00
2022,09,24,11,14,446.40
2022,09,24,11,15,381.70
2022,09,24,11,16,362.90
2022,09,24,11,17,451.30
2022,09,24,11,18,462.00
2022,09,24,11,19,475.70
2022,09,24,11,20,513.70
2022,09,24,11,21,551.20
2022,09,24,11,22,590.50
2022,09,24,11,23,598.00
2022,09,24,11,24,598.00
2022,09,24,11,25,598.00
2022,09,24,11,26,598.00
2022,09,24,11,27,598.00
2022,09,24,11,28,598.50
2022,09,24,11,29,599.00
2022,09,24,11,30,600.60
2022,09,24,11,31,602.90
2022,09,24,11,32,605.00
2022,09,24,11,33,605.30
2022,09,24,11,34,606.80
2022,09,24,11,35,609.10
2022,09,24,11,36,611.30
2022,09,24,11,37,612.00
2022,09,24,11,38,613.00
2022,09,24,11,39,615.30
2022,09,24,11,40,617.00
2022,09,24,11,41,617.80
2022,09,24,11,42,619.00
2022,09,24,11,43,614.30
2022,09,24,11,44,612.00
2022,09,24,11,45,606.70
2022,09,24,11,46,610.10
2022,09,24,11,47,600.10
2022,09,24,11,48,604.20
2022,09,24,11,49,609.60
2022,09,24,11,50,615.60
2022,09,24,11,51,620.90
2022,09,24,11,52,621.00
2022,09,24,11,53,619.30
2022,09,24,11,54,621.90
2022,09,24,11,55,624.00
2022,09,24,11,56,621.20
2022,09,24,11,57,616.40
2022,09,24,11,58,613.40
2022,09,24,11,59,616.80
2022,09,24,12,00,622.30
2022,09,24,12,01,623.10
2022,09,24,12,02,621.00
2022,09,24,12,03,626.60
2022,09,24,12,04,632.40
2022,09,24,12,05,635.40
2022,09,24,12,06,639.80
2022,09,24,12,07,642.20
2022,09,24,12,08,642.70
2022,09,24,12,09,641.10
2022,09,24,12,10,640.00
2022,09,24,12,11,640.00
2022,09,24,12,12,642.30
2022,09,24,12,13,642.10
2022,09,24,12,14,641.20
2022,09,24,12,15,632.40
2022,09,24,12,16,634.80
2022,09,24,12,17,630.90
2022,09,24,12,18,608.30
2022,09,24,12,19,598.00
2022,09,24,12,20,622.00
2022,09,24,12,21,621.00
2022,09,24,12,22,621.80
2022,09,24,12,23,622.00
2022,09,24,12,24,612.30
2022,09,24,12,25,606.00
2022,09,24,12,26,649.20
2022,09,24,12,27,657.20
2022,09,24,12,28,656.90
2022,09,24,12,29,656.00
2022,09,24,12,30,654.30
2022,09,24,12,31,653.10
2022,09,24,12,32,654.00
2022,09,24,12,33,654.00
2022,09,24,12,34,654.00
2022,09,24,12,35,654.00
2022,09,24,12,36,654.00
2022,09,24,12,37,654.90
2022,09,24,12,38,656.00
2022,09,24,12,39,652.00
2022,09,24,12,40,614.60
2022,09,24,12,41,636.00
2022,09,24,12,42,651.10
2022,09,24,12,43,655.40
2022,09,24,12,44,654.00
2022,09,24,12,45,654.00
2022,09,24,12,46,654.00
2022,09,24,12,47,654.00
2022,09,24,12,48,654.00
2022,09,24,12,49,654.00
2022,09,24,12,50,653.40
2022,09,24,12,51,652.80
2022,09,24,12,52,654.00
2022,09,24,12,53,654.00
2022,09,24,12,54,654.00
2022,09,24,12,55,654.00
2022,09,24,12,56,654.00
2022,09,24,12,57,654.00
2022,09,24,12,58,653.20
2022,09,24,12,59,652.00
2022,09,24,13,00,650.70
2022,09,24,13,01,651.60
2022,09,24,13,02,652.00
2022,09,24,13,03,652.40
2022,09,24,13,04,654.00
2022,09,24,13,05,654.00
2022,09,24,13,06,654.00
2022,09,24,13,07,654.00
2022,09,24,13,08,654.00
2022,09,24,13,09,654.00
2022,09,24,13,10,654.00
2022,09,24,13,11,653.40
2022,09,24,13,12,652.00
2022,09,24,13,13,652.00
2022,09,24,13,14,652.00
2022,09,24,13,15,652.00
2022,09,24,13,16,652.00
2022,09,24,13,17,652.00
2022,09,24,13,18,652.00
2022,09,24,13,19,652.00
2022,09,24,13,20,650.90
2022,09,24,13,21,650.00
2022,09,24,13,22,651.60
2022,09,24,13,23,652.00
2022,09,24,13,24,652.30
2022,09,24,13,25,653.40
2022,09,24,13,26,652.80
2022,09,24,13,27,654.00
2022,09,24,13,28,654.00
2022,09,24,13,29,652.40
2022,09,24,13,30,651.90
2022,09,24,13,31,649.80
2022,09,24,13,32,649.00
2022,09,24,13,33,649.00
2022,09,24,13,34,647.90
2022,09,24,13,35,647.00
2022,09,24,13,36,647.00
2022,09,24,13,37,645.10
2022,09,24,13,38,643.00
2022,09,24,13,39,643.00
2022,09,24,13,40,643.00
2022,09,24,13,41,643.00
2022,09,24,13,42,642.30
2022,09,24,13,43,642.00
2022,09,24,13,44,642.00
2022,09,24,13,45,641.70
2022,09,24,13,46,640.00
2022,09,24,13,47,640.00
2022,09,24,13,48,640.00
2022,09,24,13,49,640.00
2022,09,24,13,50,640.00
2022,09,24,13,51,639.90
2022,09,24,13,52,638.30
2022,09,24,13,53,639.50
2022,09,24,13,54,638.00
2022,09,24,13,55,636.90
2022,09,24,13,56,636.00
2022,09,24,13,57,635.20
2022,09,24,13,58,634.90
2022,09,24,13,59,633.00
2022,09,24,14,00,632.40
2022,09,24,14,01,631.00
2022,09,24,14,02,631.00
2022,09,24,14,03,629.70
2022,09,24,14,04,629.00
2022,09,24,14,05,629.00
2022,09,24,14,06,627.60
2022,09,24,14,07,626.60
2022,09,24,14,08,628.00
2022,09,24,14,09,626.90
2022,09,24,14,10,626.00
2022,09,24,14,11,624.40
2022,09,24,14,12,622.20
2022,09,24,14,13,624.00
2022,09,24,14,14,624.00
2022,09,24,14,15,624.80
2022,09,24,14,16,627.10
2022,09,24,14,17,628.00
2022,09,24,14,18,628.00
2022,09,24,14,19,624.40
2022,09,24,14,20,628.40
2022,09,24,14,21,631.00
2022,09,24,14,22,631.00
2022,09,24,14,23,632.00
2022,09,24,14,24,634.90
2022,09,24,14,25,637.60
2022,09,24,14,26,640.00
2022,09,24,14,27,642.00
2022,09,24,14,28,642.30
2022,09,24,14,29,643.80
2022,09,24,14,30,646.00
2022,09,24,14,31,648.30
2022,09,24,14,32,649.00
2022,09,24,14,33,649.90
2022,09,24,14,34,650.40
2022,09,24,14,35,652.00
2022,09,24,14,36,652.00
2022,09,24,14,37,653.10
2022,09,24,14,38,655.30
2022,09,24,14,39,654.40
2022,09,24,14,40,635.30
2022,09,24,14,41,651.60
2022,09,24,14,42,649.90
2022,09,24,14,43,617.80
2022,09,24,14,44,591.60
2022,09,24,14,45,632.00
2022,09,24,14,46,640.40
2022,09,24,14,47,635.70
2022,09,24,14,48,636.10
2022,09,24,14,49,614.90
2022,09,24,14,50,568.30
2022,09,24,14,51,517.70
2022,09,24,14,52,558.00
2022,09,24,14,53,577.00
2022,09,24,14,54,529.90
2022,09,24,14,55,581.60
2022,09,24,14,56,595.10
2022,09,24,14,57,576.40
2022,09,24,14,58,595.00
2022,09,24,14,59,588.20
2022,09,24,15,00,567.10
2022,09,24,15,01,488.60
2022,09,24,15,02,427.00
2022,09,24,15,03,443.50
2022,09,24,15,04,488.40
2022,09,24,15,05,518.80
2022,09,24,15,06,467.50
2022,09,24,15,07,426.40
2022,09,24,15,08,453.10
2022,09,24,15,09,496.80
2022,09,24,15,10,496.00
2022,09,24,15,11,408.60
2022,09,24,15,12,313.10
2022,09,24,15,13,309.30
2022,09,24,15,14,269.90
2022,09,24,15,15,265.30
2022,09,24,15,16,306.10
2022,09,24,15,17,316.60
2022,09,24,15,18,312.30
2022,09,24,15,19,276.70
2022,09,24,15,20,270.30
2022,09,24,15,21,289.20
2022,09,24,15,22,372.40
2022,09,24,15,23,449.30
2022,09,24,15,24,464.60
2022,09,24,15,25,467.60
2022,09,24,15,26,519.20
2022,09,24,15,27,537.50
2022,09,24,15,28,533.20
2022,09,24,15,29,533.90
2022,09,24,15,30,532.20
2022,09,24,15,31,524.00
2022,09,24,15,32,524.80
2022,09,24,15,33,524.90
2022,09,24,15,34,522.70
2022,09,24,15,35,519.60
2022,09,24,15,36,519.00
2022,09,24,15,37,518.10
2022,09,24,15,38,512.10
2022,09,24,15,39,510.00
2022,09,24,15,40,507.90
2022,09,24,15,41,504.00
2022,09,24,15,42,501.40
2022,09,24,15,43,497.30
2022,09,24,15,44,496.10
2022,09,24,15,45,491.10
2022,09,24,15,46,488.10
2022,09,24,15,47,485.90
2022,09,24,15,48,483.00
2022,09,24,15,49,480.40
2022,09,24,15,50,476.40
2022,09,24,15,51,475.00
2022,09,24,15,52,474.00
2022,09,24,15,53,469.80
2022,09,24,15,54,466.90
2022,09,24,15,55,464.70
2022,09,24,15,56,464.00
2022,09,24,15,57,459.50
2022,09,24,15,58,456.60
2022,09,24,15,59,455.00
2022,09,24,16,00,454.60
2022,09,24,16,01,454.00
2022,09,24,16,02,451.30
2022,09,24,16,03,448.40
2022,09,24,16,04,447.90
2022,09,24,16,05,445.40
2022,09,24,16,06,443.60
2022,09,24,16,07,443.40
2022,09,24,16,08,439.90
2022,09,24,16,09,438.30
2022,09,24,16,10,434.90
2022,09,24,16,11,432.20
2022,09,24,16,12,431.60
2022,09,24,16,13,428.40
2022,09,24,16,14,426.20
2022,09,24,16,15,424.50
2022,09,24,16,16,422.70
2022,09,24,16,17,420.40
2022,09,24,16,18,418.10
2022,09,24,16,19,416.60
2022,09,24,16,20,414.40
2022,09,24,16,21,411.70
2022,09,24,16,22,410.00
2022,09,24,16,23,402.70
2022,09,24,16,24,404.50
2022,09,24,16,25,403.90
2022,09,24,16,26,390.50
2022,09,24,16,27,344.70
2022,09,24,16,28,320.00
2022,09,24,16,29,336.00
2022,09,24,16,30,349.50
2022,09,24,16,31,362.70
2022,09,24,16,32,307.00
2022,09,24,16,33,348.60
2022,09,24,16,34,371.20
2022,09,24,16,35,366.60
2022,09,24,16,36,358.20
2022,09,24,16,37,352.00
2022,09,24,16,38,352.00
2022,09,24,16,39,327.90
2022,09,24,16,40,292.10
2022,09,24,16,41,245.60
2022,09,24,16,42,254.10
2022,09,24,16,43,209.30
2022,09,24,16,44,196.00
2022,09,24,16,45,259.10
2022,09,24,16,46,307.70
2022,09,24,16,47,333.60
2022,09,24,16,48,356.00
2022,09,24,16,49,350.50
2022,09,24,16,50,349.70
2022,09,24,16,51,341.60
2022,09,24,16,52,341.00
2022,09,24,16,53,330.90
2022,09,24,16,54,323.40
2022,09,24,16,55,287.70
2022,09,24,16,56,318.30
2022,09,24,16,57,310.90